Wind_Speed
47 44 42 47 52 54 50 47 47 46 47 46 45 44 42 41 39 42 43 38 35 33 29 31 29 26 29 33 36 41 44 47 48 47 45 47 51 52 51 47 43 41 42 43 40 37 39 40 42 42 41 40 41 43 42 42 42 44 46 48 50 52 53 53 53 52 52 53 54 55 55 55 54 54 53 54 54 55 57 58 59 60 61 62 63 64
49 45 44 52 55 54 52 50 49 47 47 47 46 45 44 44 43 43 45 41 39 36 31 32 28 25 29 32 34 38 40 43 47 47 47 49 51 52 52 49 45 42 42 44 41 38 41 43 43 42 41 42 42 42 42 42 43 45 47 49 52 54 54 54 54 54 54 55 55 55 55 54 54 54 54 54 55 56 58 59 60 62 63 64 66 67
47 45 48 55 57 55 54 53 51 49 48 47 47 45 43 46 46 42 44 43 41 38 34 32 28 25 28 31 33 36 38 40 43 45 48 52 52 51 50 48 46 45 45 45 43 39 41 45 44 43 42 43 43 42 42 43 44 46 48 51 53 55 55 56 56 57 56 55 55 55 54 54 54 54 55 55 56 57 58 60 61 63 65 66 68 69
45 44 50 55 58 57 55 54 53 52 51 49 48 46 43 46 46 42 42 42 41 40 36 33 29 24 28 31 33 36 38 39 41 44 47 50 52 51 49 48 48 46 47 48 45 41 42 46 45 44 44 44 43 43 44 45 46 48 50 52 54 55 57 58 58 57 55 54 54 54 54 54 54 55 56 56 57 59 60 61 63 64 66 68 69 70
45 45 49 53 57 58 55 54 54 55 54 51 49 48 46 46 46 44 43 40 39 40 38 36 30 23 28 33 33 36 39 39 41 42 44 46 49 50 49 50 50 47 48 49 47 44 45 47 47 47 46 45 45 45 46 47 48 49 51 53 55 57 58 58 57 56 54 54 54 54 54 54 55 56 56 57 59 61 62 64 65 66 68 69 70 72
46 48 51 53 56 57 56 55 56 59 56 51 50 50 50 50 48 47 46 41 38 38 37 38 32 24 27 33 34 37 39 40 41 41 43 47 48 49 49 51 52 50 50 51 49 48 49 50 50 50 49 48 48 48 48 49 50 51 52 54 55 57 58 57 56 56 55 55 55 55 55 56 56 57 59 60 62 63 65 66 67 68 70 71 72 73
48 51 54 56 56 56 56 55 59 62 58 52 52 54 54 54 51 49 48 44 39 36 35 36 35 28 26 31 35 37 38 39 41 43 45 48 49 50 51 51 53 54 55 55 53 52 53 54 54 53 52 51 50 51 51 51 52 52 53 53 54 55 56 57 57 58 58 57 57 56 57 58 59 60 61 63 64 66 68 69 70 71 72 73 74 75
52 54 55 58 58 57 56 56 60 65 61 54 54 57 56 55 54 50 50 47 42 38 35 34 38 36 28 30 36 37 36 37 39 43 46 49 50 52 53 53 55 56 58 58 57 56 57 56 56 56 55 54 53 53 52 52 52 52 51 51 53 55 57 58 59 60 60 59 58 57 58 59 60 61 62 63 65 66 68 70 71 72 73 74 75 75
56 55 57 59 59 58 58 59 62 65 63 57 56 58 57 57 56 53 52 49 45 41 35 35 43 45 33 29 36 36 33 35 38 43 45 47 50 50 53 54 55 57 59 59 58 58 59 58 58 58 57 56 55 54 53 53 53 52 51 52 54 56 57 58 60 60 60 59 58 58 59 60 60 61 62 63 65 67 68 70 72 73 74 75 76 77
56 56 57 58 59 60 60 62 64 65 64 61 60 60 58 59 57 57 54 51 50 43 35 39 48 51 39 28 34 34 31 35 37 40 45 48 50 50 52 54 54 55 57 59 58 58 60 60 59 59 58 57 56 55 55 54 54 53 53 54 55 56 57 58 59 59 60 59 58 59 60 60 61 62 63 64 66 68 69 71 73 74 75 77 78 79
58 56 55 56 59 60 60 63 64 66 66 64 65 63 62 63 60 60 58 54 54 42 37 45 51 53 42 27 31 34 34 37 38 41 45 47 50 52 55 57 56 56 57 58 58 58 61 61 60 60 59 59 58 58 58 56 55 54 53 54 55 55 56 57 58 60 62 62 61 60 61 62 63 64 65 66 69 71 72 73 75 76 77 78 80 81
61 57 56 58 59 60 62 64 64 65 67 67 67 66 66 66 64 63 60 58 57 44 39 48 53 54 42 27 31 37 37 40 43 44 45 46 50 53 56 59 60 60 60 59 58 59 62 63 62 62 61 61 61 60 59 57 56 54 54 54 55 55 55 57 59 62 65 66 64 63 64 65 66 67 69 71 73 75 77 78 78 79 80 81 82 84
64 60 61 62 61 63 64 64 62 63 65 66 66 66 68 67 66 66 62 61 59 49 45 51 53 52 41 30 36 41 42 44 45 45 45 48 55 58 61 63 64 65 63 62 61 61 63 66 66 65 64 64 64 63 61 59 58 56 56 56 57 57 57 58 61 64 68 70 69 68 68 70 71 72 74 76 78 80 82 83 84 84 85 85 86 88
67 63 63 66 65 67 67 66 65 64 64 64 64 67 67 66 67 68 65 63 60 54 52 54 53 49 40 36 41 44 47 49 48 49 49 52 61 65 67 68 70 70 68 67 67 66 66 68 70 69 68 68 68 66 65 63 61 60 60 60 60 60 60 62 64 67 70 72 74 74 74 75 76 78 79 81 83 85 87 88 89 89 90 90 91 91
73 67 62 65 67 66 67 68 69 68 65 63 64 68 66 64 69 71 66 63 61 58 53 54 54 47 41 42 43 45 49 51 52 54 54 57 65 70 72 73 72 71 71 70 70 70 69 70 73 73 71 71 71 71 70 68 66 65 64 64 64 64 65 66 68 70 73 76 78 79 80 81 82 83 85 87 88 90 91 93 94 95 95 96 96 96
79 72 65 68 70 67 68 70 72 72 68 63 64 68 65 65 72 74 69 64 65 63 54 52 53 46 42 45 44 46 50 52 55 57 58 61 65 70 74 74 73 71 71 71 70 71 71 72 75 75 74 74 74 74 74 72 71 69 68 67 67 67 68 70 71 74 77 80 82 84 85 86 87 88 90 91 93 94 95 97 98 99 99 100 101 101
85 80 73 73 73 71 72 73 74 75 72 67 66 67 67 70 74 76 74 70 71 69 56 50 53 47 43 43 41 46 51 53 55 55 58 63 66 72 76 76 76 74 74 74 73 74 74 75 77 77 77 77 76 77 76 75 74 72 71 69 69 70 70 72 74 77 81 84 86 88 89 90 91 93 94 95 97 98 99 101 102 103 103 104 104 104
88 87 80 76 75 73 74 76 77 77 77 75 73 72 73 75 75 77 81 78 76 76 62 51 53 52 47 42 42 49 53 54 56 55 57 62 67 74 78 78 79 77 77 78 77 78 78 79 79 78 79 79 79 80 79 79 78 76 76 74 73 73 74 76 78 81 84 86 89 92 93 95 96 97 98 99 100 101 103 104 105 106 107 107 107 107
93 94 90 83 79 77 77 78 78 78 81 83 81 80 79 79 79 81 87 85 83 84 75 63 61 57 49 46 49 54 54 54 57 56 58 62 68 76 79 78 77 77 79 80 79 81 81 81 81 79 79 79 80 81 80 80 80 80 80 78 76 76 77 79 81 84 87 88 91 95 97 99 100 101 102 103 104 104 105 107 108 109 110 110 110 109
101 102 101 94 89 87 85 82 82 84 88 90 88 87 85 85 86 88 91 90 88 90 86 80 74 58 47 48 50 53 54 55 56 55 57 63 69 76 79 78 77 78 80 81 82 84 83 82 81 80 78 78 80 82 81 80 81 82 83 81 80 80 80 83 86 88 89 91 93 97 100 102 104 104 105 105 106 107 108 110 110 111 112 111 111 111
104 106 107 103 99 98 94 91 93 95 96 96 95 94 91 91 93 95 97 93 91 94 93 93 85 61 52 57 57 56 58 58 60 61 63 67 70 74 79 79 79 79 80 82 83 83 81 79 79 79 79 77 77 80 81 81 81 82 83 83 83 83 84 87 90 92 93 94 96 99 102 105 106 107 108 108 109 110 111 112 113 113 113 113 112 112
106 109 111 110 108 104 100 100 102 102 102 103 103 101 99 99 100 102 103 98 97 102 102 106 98 72 61 66 67 68 67 62 65 68 70 72 72 74 77 78 78 78 78 78 78 77 76 76 76 78 79 78 78 80 82 83 83 83 84 85 85 86 88 91 93 94 96 97 99 101 103 106 108 109 110 111 113 114 115 115 115 115 114 114 114 113
109 113 116 116 114 111 108 107 106 105 106 107 109 107 105 105 105 107 110 109 110 113 113 116 108 82 70 72 71 73 74 71 73 75 76 78 78 78 79 77 77 77 77 77 77 77 78 79 80 81 82 83 84 85 87 88 89 88 88 88 88 90 92 94 95 97 99 100 101 103 105 107 109 111 114 115 117 118 118 118 117 116 115 115 115 115
115 119 121 121 119 118 115 113 111 110 110 111 112 111 109 111 113 115 118 117 118 121 120 121 113 94 85 80 75 77 81 81 82 82 83 85 85 85 84 82 82 81 80 81 81 83 83 84 85 86 87 89 91 92 93 93 93 93 93 94 94 95 96 97 99 100 102 103 104 105 107 108 110 113 116 118 120 121 121 120 119 118 117 116 116 116
119 122 125 126 127 126 123 119 117 115 115 117 117 116 116 118 120 122 122 122 124 126 125 125 120 109 98 88 84 86 87 85 85 85 88 89 90 91 89 87 87 85 85 86 87 88 89 89 90 91 93 95 97 99 99 98 98 98 98 99 99 100 100 101 102 103 104 105 106 107 108 110 112 115 118 121 122 122 122 121 120 119 119 118 117 117
124 126 129 130 131 131 129 125 123 122 124 126 125 123 122 122 123 124 125 127 130 129 128 129 127 120 110 100 95 93 88 87 89 90 91 92 95 97 96 93 90 88 88 90 90 91 92 93 94 95 97 99 100 100 99 99 99 98 98 99 99 101 102 102 104 105 106 107 108 109 111 113 115 118 121 122 122 122 121 120 120 120 120 119 118 117
130 132 133 134 134 135 134 132 131 131 132 133 131 129 128 127 126 126 128 132 134 132 132 132 129 126 119 108 100 94 91 92 93 93 95 98 101 101 98 95 94 93 94 93 92 92 93 94 95 97 99 99 98 97 96 96 97 98 99 100 101 102 103 105 106 107 108 109 110 112 114 117 119 120 121 121 120 119 119 119 120 120 120 120 118 117
135 137 137 138 139 139 139 138 137 137 137 137 135 134 133 131 131 132 135 137 137 137 137 134 130 129 124 114 105 101 99 97 97 97 101 104 105 102 100 99 99 99 98 95 94 95 96 97 98 100 101 101 101 100 99 99 99 101 102 103 105 106 107 109 110 111 112 113 115 117 118 119 119 119 118 118 117 117 118 118 119 119 119 119 118 117
139 140 141 141 142 143 142 141 141 141 140 140 139 137 136 135 136 138 141 140 139 140 140 136 132 130 126 119 114 110 105 103 103 103 104 104 103 104 105 105 104 103 102 99 97 98 100 101 102 103 104 104 105 105 104 104 105 105 106 107 109 110 112 114 115 115 117 117 118 119 118 118 117 116 116 116 116 116 116 117 118 118 118 117 116 115
143 143 143 144 145 146 146 145 145 146 146 145 143 141 139 138 138 139 139 137 137 139 139 136 133 129 125 120 116 113 110 109 107 105 104 103 102 104 106 107 107 107 105 104 104 105 106 106 107 107 108 108 109 109 109 109 109 109 110 111 113 114 116 117 118 118 119 118 117 116 115 115 115 114 114 114 114 115 115 115 116 116 115 114 113 111
146 145 145 146 147 149 149 148 147 148 148 147 145 142 139 138 136 134 131 129 131 135 136 134 131 127 122 116 113 114 114 113 110 107 105 104 104 104 105 109 112 111 109 110 112 112 112 112 111 111 110 110 111 112 113 113 113 114 114 116 117 118 119 119 118 117 116 115 114 113 113 113 113 113 113 113 113 113 113 114 114 113 112 110 108 106
145 145 144 145 146 148 148 146 145 145 145 144 144 140 137 136 134 130 126 124 127 131 133 132 130 126 121 116 114 115 115 114 113 110 108 108 109 109 110 113 115 114 113 116 117 116 115 114 113 112 111 111 112 114 115 116 116 117 117 118 118 117 116 115 113 112 111 111 111 111 111 111 111 111 111 110 110 110 110 110 110 109 107 104 101 98
147 146 145 145 145 145 145 143 141 142 143 144 144 138 134 133 132 131 129 127 127 128 131 132 129 125 121 117 115 116 115 115 114 112 112 115 116 114 113 114 115 114 114 116 116 116 115 114 114 114 112 112 113 114 115 115 115 115 115 113 112 110 109 109 108 108 108 108 108 108 108 108 108 108 108 108 108 108 107 106 104 101 99 97 95 94
148 146 145 144 144 144 142 140 140 143 146 145 140 134 131 130 131 131 132 130 126 124 126 128 127 123 120 118 118 118 116 115 114 115 118 121 120 117 115 116 117 116 115 114 114 114 114 114 115 114 113 111 111 111 110 110 109 109 108 107 106 106 106 106 106 105 105 105 105 105 105 106 106 106 106 105 104 103 102 101 99 98 96 95 94 95
140 139 139 139 139 139 138 138 140 144 145 140 135 132 130 129 129 129 130 128 124 120 119 122 125 125 124 123 122 120 118 116 117 120 123 123 121 120 120 121 121 120 118 116 116 115 115 114 113 112 110 109 107 106 105 105 106 105 105 105 105 105 105 105 104 104 104 104 103 103 104 105 105 105 104 103 101 99 97 97 96 96 96 96 96 96
131 131 131 132 133 134 134 136 139 140 139 136 134 132 129 126 125 128 131 130 127 123 122 125 127 127 126 125 123 123 122 121 123 125 124 121 120 121 122 123 122 121 120 120 120 119 117 115 112 110 108 106 105 105 105 106 106 105 104 104 105 105 106 106 106 106 106 106 105 105 106 106 106 105 103 101 99 97 96 95 95 95 96 96 97 97
125 126 126 127 128 129 130 132 134 134 134 132 129 125 122 121 123 127 131 133 130 128 127 126 125 123 120 121 124 126 125 125 128 126 120 118 120 122 123 124 124 123 123 122 122 120 117 114 112 110 109 109 110 111 111 111 110 110 110 110 111 112 112 112 113 112 112 111 110 109 109 108 106 104 101 99 97 96 95 95 95 96 96 96 97 98
121 122 123 125 126 126 128 129 130 131 130 125 121 117 115 117 120 124 130 134 133 131 129 125 121 119 118 121 127 130 130 130 130 125 118 119 123 124 125 126 126 126 126 125 123 120 118 117 115 114 114 115 117 117 117 116 116 116 116 117 118 118 118 118 118 117 117 115 113 112 111 109 106 102 100 98 96 95 95 95 96 96 96 97 97 97
119 120 122 124 126 126 127 128 129 129 126 121 116 112 111 113 117 123 129 130 127 127 129 127 124 124 126 129 132 135 136 135 132 126 122 123 125 125 127 127 126 127 130 130 128 125 122 121 121 120 120 120 120 121 120 119 118 118 118 118 119 119 119 118 118 118 117 115 113 112 110 107 104 102 99 98 96 95 95 96 96 96 96 96 97 97
117 119 121 124 125 125 127 128 129 128 125 120 115 111 108 110 116 122 126 123 120 122 126 127 127 130 132 133 134 136 139 138 133 128 125 125 126 126 127 128 128 130 132 134 133 130 126 125 124 124 123 122 122 121 121 120 118 116 115 116 116 116 116 116 117 118 117 114 112 110 108 106 104 103 101 99 97 97 96 96 96 95 95 96 96 96
115 118 120 123 123 124 126 128 128 127 124 120 117 113 109 111 116 120 120 118 117 119 120 121 123 126 129 130 131 133 135 135 134 131 128 128 129 130 131 132 133 134 135 137 137 134 131 129 127 125 123 121 119 119 118 117 114 113 112 112 113 114 115 115 116 116 114 112 110 108 107 106 105 104 103 101 100 99 98 96 96 96 95 96 96 95
115 117 119 121 122 122 124 126 127 126 124 120 117 114 113 115 118 118 116 114 115 116 116 116 118 120 122 125 127 128 129 130 131 132 132 132 132 133 135 136 137 137 137 138 137 135 134 132 130 127 122 116 114 114 114 114 113 112 111 110 111 113 113 113 113 113 111 110 109 108 107 107 106 105 105 104 103 101 100 98 98 97 97 96 95 95
118 118 119 120 121 122 124 125 126 126 124 120 117 114 115 118 120 118 116 115 114 115 115 115 116 117 118 120 122 124 125 125 128 130 131 132 131 131 133 135 135 135 135 135 134 132 131 130 129 127 122 116 113 113 113 114 113 112 110 109 110 110 110 110 110 110 110 109 109 108 108 107 107 106 105 105 105 104 102 100 99 99 98 97 96 95
119 119 120 121 122 124 126 125 125 125 125 123 119 116 116 118 120 120 119 117 116 116 116 115 115 116 117 117 118 119 120 121 122 123 124 125 124 123 125 126 127 128 128 129 129 128 127 127 127 126 123 120 117 116 115 114 112 110 109 109 110 109 109 109 110 110 110 110 109 108 107 107 106 106 105 106 106 105 103 101 100 100 99 97 96 95
119 120 121 121 121 124 126 125 124 125 125 125 122 119 117 119 121 121 120 119 119 118 118 117 117 117 118 118 118 118 118 118 118 118 118 119 118 118 117 118 119 120 121 122 123 123 124 125 125 124 122 120 119 118 117 114 112 110 110 112 112 111 111 111 112 111 111 110 109 108 107 106 106 106 105 105 105 104 103 101 101 100 99 97 96 95
119 120 120 120 120 122 124 124 124 125 125 125 124 122 120 120 121 121 121 121 120 119 118 118 118 117 118 119 119 119 118 118 117 117 117 116 116 116 115 115 115 116 117 117 117 118 119 119 119 119 118 117 117 117 116 115 113 112 113 114 114 114 113 113 113 113 112 110 109 108 106 105 105 105 104 104 103 103 102 100 99 99 98 97 96 96
119 120 120 119 118 120 121 121 122 124 125 125 125 124 123 123 122 121 121 121 120 119 118 118 118 118 118 118 119 119 119 119 118 117 116 115 115 114 114 114 114 115 115 115 114 114 114 114 115 115 115 115 115 116 116 115 114 113 114 114 114 114 115 115 114 113 112 110 109 107 106 105 104 103 102 102 101 101 99 98 97 96 96 96 96 95
117 118 120 119 118 117 117 118 120 123 124 123 123 124 125 125 125 123 122 121 119 118 118 118 119 120 119 118 118 119 120 120 119 118 117 116 116 115 115 115 116 116 115 114 114 113 113 113 113 113 114 114 115 116 116 115 114 113 112 112 112 112 113 114 114 113 111 109 107 106 104 103 102 101 100 100 99 98 96 95 95 94 95 95 94 93
116 115 115 117 118 117 115 115 119 122 121 119 120 124 126 127 126 126 124 122 119 117 117 118 119 119 118 117 117 118 119 119 119 119 118 117 116 116 116 117 118 117 116 115 114 114 113 112 112 112 112 112 113 114 114 112 111 110 109 108 108 109 110 112 112 111 109 107 105 103 102 101 100 99 98 97 97 96 94 93 92 93 93 93 92 91
116 113 112 115 117 114 112 113 118 120 119 116 117 122 126 126 126 125 123 121 119 117 117 117 117 117 117 116 116 117 117 117 117 118 118 117 116 116 117 117 118 117 117 116 115 114 113 112 111 110 110 110 111 111 110 108 107 106 105 104 104 105 107 108 108 108 107 105 103 101 99 97 96 96 96 95 94 94 92 91 90 90 91 91 90 90
114 111 111 113 113 110 108 112 117 119 118 116 116 119 123 125 125 124 121 118 117 117 117 117 115 114 114 115 115 115 115 114 114 114 115 114 113 114 115 116 116 115 114 113 113 112 111 110 109 108 107 107 107 107 105 103 102 101 100 100 100 101 103 104 104 105 104 102 100 98 97 95 94 93 93 93 93 92 90 89 88 89 89 89 89 88
Wind_Direction
287 288 291 288 284 284 288 290 288 288 289 288 288 289 289 288 287 286 287 290 289 288 290 288 288 293 292 285 281 279 280 280 279 277 276 275 273 273 275 276 276 276 276 276 276 275 274 271 270 272 275 276 276 277 279 280 281 283 283 284 284 286 287 288 288 289 290 291 291 292 293 294 294 293 292 291 290 289 288 288 288 288 288 288 289 289
285 289 290 286 284 287 289 289 287 287 288 289 288 288 288 287 285 284 287 288 287 286 286 285 287 292 292 288 283 278 277 278 280 281 280 276 274 275 278 280 281 279 276 274 273 272 272 271 270 273 275 276 277 279 280 281 283 283 284 284 285 286 287 287 288 290 291 292 292 293 294 295 295 294 293 292 291 290 289 289 289 288 288 288 289 289
283 288 287 285 286 287 288 288 288 288 287 287 287 287 288 287 285 285 287 286 286 285 284 284 285 287 289 287 283 279 276 276 278 279 280 279 279 279 280 282 282 280 277 274 273 271 270 271 273 276 277 277 279 281 282 283 284 284 285 285 285 286 287 287 289 291 292 292 293 294 295 296 295 294 294 293 292 291 291 290 289 289 288 288 288 289
285 286 284 285 286 286 287 287 289 288 287 286 286 287 287 284 285 286 286 286 287 286 284 282 281 284 286 282 280 279 278 278 278 278 280 281 282 282 282 281 278 277 276 276 275 274 272 274 277 280 280 281 282 284 284 285 285 285 286 285 285 286 287 289 290 291 292 292 293 294 295 295 294 294 293 293 292 292 291 289 288 288 288 288 288 289
288 285 283 283 284 285 286 287 288 288 286 287 288 289 286 283 284 286 285 286 286 286 285 281 279 280 281 281 280 280 280 281 281 282 282 280 279 279 280 279 278 277 277 277 278 277 276 278 280 281 282 283 284 284 285 285 286 286 286 285 286 287 288 289 290 291 292 292 293 293 293 293 293 292 292 291 291 290 289 288 288 288 288 289 289 290
290 287 282 280 281 284 286 288 288 286 285 287 290 289 287 285 286 286 286 286 287 286 285 284 280 272 275 281 281 281 283 285 285 283 280 277 277 277 278 277 278 278 277 277 278 278 279 280 281 282 282 283 284 285 285 286 286 286 285 286 287 287 288 289 290 290 291 291 292 292 292 291 291 290 290 290 290 289 289 289 289 289 289 290 291 291
289 285 283 283 284 284 286 288 287 284 285 288 290 288 287 287 288 287 286 287 288 286 285 286 282 270 268 277 277 278 282 287 288 284 279 278 279 278 277 277 278 278 278 278 278 279 280 281 282 283 284 285 286 286 286 287 286 285 285 286 286 286 287 288 289 289 290 291 292 291 291 290 290 290 290 291 290 290 290 290 290 290 291 291 291 291
285 284 285 285 285 286 288 287 284 284 287 289 289 287 287 287 287 287 287 288 289 286 286 287 281 270 260 266 272 275 279 284 285 284 283 282 280 278 276 275 275 278 279 280 280 281 282 284 285 286 286 287 287 287 287 286 285 285 285 285 285 285 286 287 288 288 289 290 291 290 290 290 291 292 292 292 292 292 292 292 292 292 292 292 292 292
283 284 284 283 284 286 286 285 284 285 287 289 287 285 285 285 286 287 287 289 288 285 287 286 279 272 264 260 268 274 276 277 277 279 282 281 280 280 277 274 273 274 277 279 281 283 285 286 287 287 287 287 287 287 285 284 284 285 285 284 284 285 286 287 288 288 288 288 288 288 289 290 292 293 293 293 294 294 294 293 293 292 292 292 292 292
284 282 281 282 284 283 283 283 283 284 285 286 284 283 283 283 285 286 287 288 285 287 290 282 274 273 273 270 271 271 267 267 269 272 275 277 279 280 279 277 274 274 276 277 280 283 284 285 285 285 286 286 285 285 284 283 284 284 284 284 284 285 286 286 286 286 286 286 286 286 288 289 291 292 293 294 294 295 294 294 293 292 292 291 291 291
285 283 283 283 281 281 281 281 281 282 282 283 283 283 283 283 284 285 286 285 284 288 288 280 274 274 278 279 273 268 262 262 264 266 270 276 279 278 277 277 276 276 276 277 280 284 284 284 285 284 284 284 283 282 282 283 283 283 283 283 283 284 284 285 285 285 285 284 284 285 287 288 289 291 293 293 294 294 294 294 293 293 293 292 292 291
284 286 286 284 282 281 280 278 280 281 282 282 283 283 283 282 283 283 284 284 284 285 280 275 274 276 282 281 269 265 260 259 261 263 269 274 276 276 275 276 276 277 277 277 280 282 283 284 283 283 283 282 281 281 281 281 281 282 282 282 281 282 282 283 284 285 285 285 285 285 286 288 290 292 293 293 294 294 294 294 294 294 294 294 294 293
282 285 284 284 284 283 280 280 281 282 282 282 284 285 284 283 283 283 283 283 282 281 275 272 273 278 285 281 269 267 263 261 262 264 267 269 270 271 272 274 276 276 277 278 280 280 281 281 280 280 280 280 280 280 280 280 280 280 281 280 279 279 280 281 283 284 285 286 286 287 287 289 291 292 293 294 294 294 294 294 294 295 295 295 295 295
280 280 281 283 283 282 282 283 282 281 281 283 286 285 285 287 287 284 282 281 280 279 276 275 277 283 284 276 271 270 269 267 266 267 267 266 268 270 271 273 274 275 278 280 280 280 279 278 278 278 278 278 279 279 279 279 279 279 279 278 277 277 277 279 282 284 285 287 287 288 289 290 291 292 294 294 295 295 295 295 295 295 295 296 296 296
278 276 277 280 280 280 282 282 281 280 280 283 285 285 287 290 288 284 282 281 280 278 276 278 281 284 282 274 270 269 269 271 271 271 271 269 270 272 273 273 274 276 278 279 280 280 279 278 278 278 278 277 278 278 279 279 278 278 278 277 275 275 276 278 281 284 287 288 289 289 290 291 292 293 294 294 295 295 295 295 295 296 296 296 296 296
277 276 274 274 275 278 280 281 281 281 280 282 283 284 287 286 284 283 284 284 282 279 278 280 280 280 278 274 272 270 269 270 270 271 273 273 274 274 274 274 275 276 277 278 278 278 277 277 278 278 278 278 279 279 279 279 278 277 276 275 274 274 276 278 281 285 288 289 290 290 291 291 292 293 293 294 295 295 295 296 296 296 296 296 296 296
278 277 274 273 273 274 276 278 280 281 282 282 281 282 282 281 281 284 284 283 282 281 280 279 279 278 276 274 276 276 274 272 270 270 272 273 274 274 275 275 276 276 277 277 277 276 277 277 278 278 279 280 280 280 279 279 278 277 276 275 274 275 277 278 281 285 288 289 290 290 291 291 292 292 293 294 295 295 295 295 296 296 296 296 296 297
280 279 278 277 276 276 276 277 278 281 282 281 280 279 278 278 280 283 284 284 284 283 282 279 277 277 277 278 279 277 276 275 275 275 275 275 274 275 275 276 276 277 277 277 277 277 277 277 278 279 280 281 280 280 279 278 278 277 276 275 275 275 277 278 280 284 287 289 290 291 291 291 292 292 293 294 294 295 295 295 296 296 296 297 297 297
286 284 283 282 282 281 279 277 279 281 281 280 280 279 279 280 282 283 284 284 284 284 284 282 278 277 279 280 278 277 277 276 276 276 275 273 273 273 273 274 275 275 276 276 277 277 277 278 279 280 281 281 280 279 278 278 277 277 276 276 276 275 277 279 282 284 286 288 290 291 291 291 292 292 293 293 294 294 295 295 296 296 297 297 297 297
290 288 288 289 289 287 285 285 286 284 281 281 282 283 284 285 285 284 283 283 285 285 284 282 280 280 282 281 280 281 279 277 274 270 267 266 268 271 273 273 274 275 276 276 276 277 277 279 280 281 281 281 281 281 280 279 278 278 277 277 276 275 277 281 283 284 286 287 289 290 291 291 292 292 292 293 294 294 295 296 297 297 297 297 297 297
288 288 289 289 289 289 291 291 289 286 286 287 288 288 288 288 287 285 283 283 283 282 281 281 282 286 290 288 287 285 281 278 276 272 268 267 266 269 272 274 275 276 276 276 276 277 278 280 281 281 281 281 282 282 282 281 280 279 278 277 276 276 278 281 283 284 285 286 288 289 291 291 292 292 292 293 294 294 295 296 297 297 297 297 296 296
286 286 286 287 288 289 290 288 287 288 290 290 290 290 290 289 286 285 285 284 283 282 282 284 286 291 293 288 287 287 285 282 278 274 272 270 268 269 271 273 275 276 276 276 276 278 280 281 281 281 281 282 282 283 283 282 281 280 280 279 278 278 279 281 283 284 285 286 287 288 290 291 292 292 292 292 293 294 295 295 296 296 296 295 295 295
283 283 284 285 287 287 286 285 286 287 288 288 289 289 287 285 283 284 285 286 286 285 286 289 290 293 293 286 282 285 285 282 279 277 274 273 271 269 269 271 272 273 274 275 276 278 280 280 280 280 281 281 281 281 281 281 281 281 281 281 281 280 281 282 283 283 284 285 286 287 288 290 291 291 292 292 293 294 294 294 295 294 294 294 294 295
282 282 282 283 284 284 283 284 285 285 286 286 285 284 283 283 284 286 286 287 286 286 288 291 291 293 295 288 280 281 282 281 279 276 275 275 274 272 271 270 270 271 272 273 274 276 277 278 278 279 279 279 279 279 279 279 280 280 281 281 281 281 281 281 282 283 283 284 285 286 287 289 290 290 291 292 293 293 294 294 294 294 293 294 294 294
281 281 282 282 283 283 283 283 283 284 283 282 282 283 284 285 286 286 286 286 286 286 289 291 291 293 293 287 281 282 283 280 277 274 273 274 275 276 276 274 272 272 272 272 272 273 274 275 276 277 277 277 277 278 279 279 279 280 280 280 281 281 281 282 282 283 284 285 286 287 287 288 289 290 291 291 292 293 293 293 293 293 293 293 293 293
280 280 280 281 282 283 283 283 283 283 282 283 284 285 285 285 284 284 284 285 285 287 289 291 291 292 291 286 283 283 281 278 275 274 274 274 276 279 280 279 278 277 276 274 274 274 274 275 275 275 275 275 275 277 278 279 280 281 281 281 281 282 282 283 283 284 285 285 286 287 287 288 289 289 290 290 291 291 292 292 292 292 292 292 292 292
278 279 279 280 280 281 282 282 283 283 283 284 284 284 284 284 283 283 283 284 285 287 288 289 290 291 289 285 282 280 278 276 275 275 275 274 276 278 278 279 279 278 277 277 277 277 277 277 277 276 276 276 277 278 279 280 281 282 282 283 283 284 284 284 285 285 285 286 287 287 288 288 288 289 289 289 289 290 290 290 291 291 291 291 291 291
276 277 278 279 280 281 281 282 282 282 282 283 283 283 283 283 283 282 283 284 285 287 287 288 288 288 287 285 282 280 279 277 276 275 274 275 277 278 277 276 275 275 276 278 278 279 278 278 278 277 278 279 281 281 282 282 283 284 284 285 285 285 286 286 286 286 287 287 287 287 287 287 287 287 288 288 288 288 289 289 289 289 290 290 290 291
275 276 277 278 279 279 279 279 280 280 281 281 281 281 281 281 281 281 282 284 285 286 286 286 286 285 286 286 285 284 282 278 276 275 274 275 277 276 275 274 275 278 280 282 281 280 278 278 278 279 280 281 282 283 284 284 284 284 284 284 284 285 285 285 286 286 286 286 286 286 286 286 286 286 286 287 287 288 288 288 288 288 288 289 289 290
276 276 276 277 277 277 277 278 279 279 280 280 279 279 279 279 279 280 282 283 284 284 284 284 284 285 287 287 285 284 282 279 277 276 276 275 273 272 273 275 278 281 283 283 281 279 278 278 279 280 280 281 282 283 283 282 282 282 282 282 282 283 284 284 285 285 285 285 285 285 285 285 285 286 286 287 287 287 287 287 287 287 287 288 288 288
275 275 275 275 276 276 277 278 279 279 279 279 278 278 278 278 280 282 282 281 281 281 283 284 285 286 286 285 282 282 281 280 278 276 275 274 272 273 274 276 279 281 282 281 279 278 278 278 279 279 279 280 280 280 280 279 279 280 280 281 282 282 283 284 284 285 285 285 285 285 285 285 285 286 286 286 286 286 286 286 286 286 286 286 286 286
273 273 274 275 275 276 277 278 278 278 278 277 277 278 279 281 282 281 280 279 279 281 283 284 284 285 285 283 281 281 280 278 276 276 276 275 274 275 276 277 278 279 279 278 278 278 279 279 279 279 278 278 278 278 278 278 278 279 280 280 281 282 283 284 284 284 284 284 285 285 285 285 285 285 285 285 285 285 285 285 286 286 286 286 286 285
272 273 273 274 274 275 276 276 276 275 274 274 276 278 279 280 279 278 278 279 280 282 283 283 283 284 284 282 281 280 279 278 279 279 278 277 277 278 279 279 278 278 277 277 277 278 278 278 278 278 277 277 277 277 277 278 279 279 280 281 282 283 284 284 285 285 285 285 284 284 284 285 285 285 285 285 285 285 285 286 286 286 287 288 288 288
272 272 273 273 273 273 273 273 272 271 271 273 275 276 276 276 276 277 279 280 280 280 280 281 282 282 281 280 279 279 280 280 281 280 279 280 282 283 282 281 281 280 279 278 278 277 277 277 277 277 277 278 278 279 280 280 281 282 283 283 284 285 286 286 286 286 286 285 285 285 285 285 286 286 286 287 288 288 289 289 290 290 290 290 290 290
271 271 271 271 270 270 270 270 268 268 270 272 273 272 271 273 275 276 277 277 277 277 277 278 279 279 278 279 280 281 281 280 279 278 278 280 282 283 283 283 283 283 282 281 280 279 279 279 280 281 281 282 282 283 283 283 284 284 285 286 286 287 288 288 288 288 288 287 287 287 288 288 288 289 290 290 290 291 291 291 292 292 292 292 292 291
271 270 270 269 269 268 268 267 267 268 270 270 269 269 269 271 273 274 274 274 274 273 273 274 275 276 278 280 281 281 281 280 278 277 278 279 280 281 281 282 282 282 283 283 282 282 283 284 285 285 286 286 286 286 287 287 287 288 288 289 289 290 290 290 291 291 290 290 290 290 290 290 291 291 292 291 291 291 291 291 291 291 291 290 291 291
270 270 270 269 268 268 268 267 267 267 267 268 268 269 269 269 268 269 271 272 272 270 270 272 274 275 278 279 280 280 279 277 276 277 279 280 280 280 280 281 282 283 283 283 284 285 286 286 287 288 288 289 290 290 290 291 291 292 292 293 293 293 293 293 293 292 292 292 292 292 292 292 292 292 291 291 291 291 291 291 291 290 290 290 291 291
269 269 269 269 269 268 268 268 268 268 268 268 269 269 269 267 266 266 267 269 269 268 268 269 271 273 274 275 276 276 275 274 275 278 280 280 279 279 280 281 283 284 285 285 285 286 287 287 288 289 290 290 290 290 290 291 292 292 292 292 292 292 291 292 291 291 291 291 292 292 292 292 291 291 290 290 290 290 290 290 290 290 290 290 291 291
267 268 268 268 268 268 269 269 269 269 270 270 270 269 269 268 266 265 265 267 269 268 266 266 266 267 268 269 271 272 273 274 275 277 277 277 277 278 279 281 283 284 284 285 285 286 287 287 288 288 289 289 289 289 289 289 289 289 289 289 289 289 289 289 289 290 290 291 292 292 291 291 291 290 290 289 289 289 289 289 289 290 290 290 290 290
266 266 266 266 267 268 269 269 269 270 271 271 271 270 269 267 266 265 266 269 270 268 266 265 265 264 264 265 267 268 270 272 274 276 277 277 277 278 279 280 281 281 281 282 283 284 285 286 286 287 287 287 287 288 288 288 287 287 287 287 287 287 288 288 289 290 290 291 291 291 291 290 290 290 290 289 289 290 290 290 290 290 290 290 290 290
265 265 265 265 266 267 268 269 270 270 271 272 272 271 270 268 266 266 267 269 269 268 267 267 266 265 264 264 265 266 268 271 273 275 276 277 277 278 278 278 278 278 279 279 281 282 283 284 285 285 285 285 286 286 286 286 286 286 286 286 287 287 288 289 289 289 290 290 290 290 290 290 290 290 290 291 291 291 290 290 290 290 290 290 290 290
267 266 266 266 266 267 268 268 269 269 270 271 271 271 271 269 268 268 269 269 269 269 269 269 268 267 267 266 267 267 269 270 271 272 273 274 275 275 275 276 276 276 277 278 279 281 282 283 283 284 284 284 284 285 285 286 286 286 286 286 287 287 288 288 288 288 289 289 289 289 289 290 290 291 291 292 292 292 291 291 291 291 291 290 291 291
267 267 267 267 267 267 267 267 268 269 270 270 270 270 270 270 270 271 271 271 270 270 270 270 270 269 269 268 268 268 268 269 269 269 270 271 272 272 273 274 274 275 276 277 278 279 280 281 282 283 284 284 285 285 285 285 285 286 286 287 287 287 287 287 287 287 287 287 288 288 289 289 290 291 291 291 291 291 291 292 291 291 290 291 291 291
267 267 267 267 267 267 267 268 269 269 270 270 270 269 269 269 269 270 270 270 270 270 270 270 270 270 270 269 269 268 269 269 269 269 269 270 271 271 271 272 273 274 275 276 277 278 279 280 281 282 283 284 285 285 285 285 285 286 287 287 287 287 287 287 286 286 286 286 287 287 288 288 289 289 290 290 290 290 291 291 291 290 290 291 291 290
267 267 267 267 268 268 268 269 269 269 270 271 271 270 269 268 268 269 269 269 269 270 270 270 270 270 270 270 270 270 270 270 270 270 271 271 271 272 272 272 273 274 275 276 277 278 278 279 280 281 282 283 284 284 284 285 285 286 287 287 287 287 287 286 286 285 285 286 286 287 287 287 288 288 288 289 289 290 290 290 290 290 291 291 291 290
268 267 267 267 268 268 269 269 270 270 270 270 271 270 270 269 269 269 269 269 269 269 269 269 270 270 270 271 271 271 271 271 271 271 271 272 272 272 272 273 273 273 274 275 275 276 277 278 279 280 281 282 282 283 283 284 285 286 286 286 286 287 286 286 285 285 285 285 285 286 286 286 287 287 287 288 288 288 289 289 289 290 290 290 290 289
268 269 268 268 268 268 269 270 270 270 270 270 271 271 271 270 269 269 268 268 268 268 269 269 269 269 269 269 270 271 271 271 271 271 272 272 272 272 273 273 273 273 273 274 275 275 276 277 278 279 280 281 281 282 283 283 284 284 284 285 285 285 285 285 285 284 284 284 285 285 285 285 285 285 286 286 286 287 287 288 288 288 288 289 289 289
268 268 269 269 269 268 268 269 269 269 269 270 271 271 271 271 270 270 269 268 268 268 268 268 268 268 268 269 269 270 270 271 271 272 272 272 272 272 272 272 272 272 273 273 274 275 275 276 277 278 278 279 280 280 281 282 282 282 282 283 283 283 283 283 283 283 283 283 283 284 284 284 284 284 284 284 284 285 285 286 287 287 287 287 288 288
268 268 268 269 269 268 268 268 268 268 269 270 271 271 271 270 270 270 270 270 270 269 269 268 268 268 268 268 268 268 269 269 270 271 271 271 272 272 272 272 273 273 274 274 274 275 275 276 276 277 277 278 278 278 279 280 280 281 281 281 281 281 281 281 281 281 282 282 282 282 282 282 282 283 283 283 283 284 285 285 286 286 287 287 288 288
269 269 268 267 268 268 269 268 268 268 269 269 269 269 269 270 270 270 270 271 271 271 271 270 269 269 269 269 269 268 268 269 269 270 270 271 271 272 272 272 273 273 274 275 275 276 276 276 276 276 277 277 277 277 278 279 279 279 279 279 279 279 279 279 280 280 281 281 281 281 281 281 282 282 283 283 284 284 285 285 286 286 286 287 287 288
269 269 269 268 268 268 268 267 266 266 267 267 267 267 268 269 270 270 271 271 271 271 271 271 271 271 271 270 270 270 269 269 269 269 269 270 270 270 271 271 271 272 273 274 275 276 276 276 276 276 276 276 276 276 277 277 278 278 278 278 278 278 278 278 279 279 280 280 280 281 281 281 282 283 283 284 284 284 285 285 286 286 286 287 287 288
Height
10745 10748 10750 10742 10733 10732 10737 10739 10739 10739 10738 10738 10738 10738 10739 10739 10739 10734 10731 10736 10736 10736 10738 10734 10734 10735 10730 10725 10721 10717 10714 10713 10711 10712 10714 10712 10708 10708 10710 10715 10718 10720 10719 10716 10718 10719 10718 10717 10716 10716 10716 10716 10714 10713 10713 10712 10711 10710 10708 10706 10705 10703 10702 10702 10701 10701 10701 10699 10697 10696 10694 10692 10691 10689 10688 10687 10685 10684 10682 10681 10679 10678 10676 10675 10673 10671
10740 10745 10745 10733 10728 10729 10731 10732 10733 10734 10733 10732 10732 10733 10733 10732 10732 10731 10729 10731 10731 10732 10734 10731 10732 10733 10727 10721 10717 10713 10711 10710 10706 10706 10707 10704 10702 10702 10704 10708 10710 10712 10712 10710 10711 10713 10711 10709 10709 10710 10710 10709 10708 10708 10707 10706 10705 10704 10702 10700 10699 10697 10696 10695 10694 10694 10694 10692 10690 10689 10687 10685 10684 10682 10681 10680 10679 10677 10676 10675 10673 10672 10670 10668 10666 10664
10740 10743 10737 10726 10723 10725 10725 10724 10725 10727 10728 10728 10727 10728 10729 10725 10724 10728 10726 10725 10726 10727 10729 10728 10728 10729 10724 10718 10713 10708 10707 10707 10704 10702 10699 10696 10696 10697 10699 10702 10703 10703 10703 10702 10704 10707 10704 10702 10703 10704 10704 10703 10702 10702 10702 10700 10700 10698 10696 10694 10692 10690 10689 10688 10687 10686 10686 10684 10683 10681 10680 10679 10677 10675 10674 10673 10672 10670 10669 10668 10666 10665 10663 10661 10659 10657
10739 10739 10731 10723 10718 10718 10719 10718 10719 10719 10720 10722 10721 10722 10725 10719 10718 10723 10723 10721 10721 10722 10723 10723 10725 10726 10719 10713 10710 10704 10702 10703 10701 10699 10696 10692 10690 10691 10693 10694 10695 10696 10695 10694 10696 10699 10698 10696 10697 10697 10696 10696 10696 10696 10695 10694 10693 10692 10690 10688 10685 10683 10682 10681 10679 10678 10678 10677 10675 10674 10672 10672 10670 10669 10667 10666 10665 10664 10662 10661 10659 10657 10655 10653 10651 10649
10732 10731 10726 10720 10712 10711 10713 10714 10713 10711 10712 10715 10715 10715 10716 10714 10713 10716 10717 10718 10718 10718 10718 10717 10721 10723 10714 10709 10706 10700 10698 10699 10697 10696 10693 10688 10686 10686 10687 10685 10685 10690 10689 10687 10689 10691 10691 10690 10690 10691 10690 10691 10690 10690 10690 10688 10687 10686 10683 10681 10678 10676 10674 10673 10671 10670 10670 10669 10668 10667 10665 10664 10663 10661 10660 10659 10658 10656 10655 10653 10651 10649 10647 10645 10643 10641
10726 10722 10717 10714 10710 10707 10708 10709 10706 10700 10704 10710 10710 10708 10706 10706 10708 10709 10710 10713 10715 10715 10713 10712 10715 10718 10712 10706 10702 10698 10696 10695 10693 10692 10687 10683 10681 10681 10682 10680 10678 10682 10682 10681 10683 10684 10684 10683 10684 10684 10684 10685 10685 10684 10684 10683 10681 10679 10677 10674 10671 10669 10666 10665 10664 10663 10662 10662 10661 10660 10658 10657 10656 10654 10653 10651 10651 10649 10646 10645 10643 10641 10639 10637 10635 10633
10721 10715 10709 10706 10705 10704 10704 10705 10698 10690 10696 10706 10705 10700 10698 10698 10700 10702 10703 10706 10710 10711 10710 10709 10709 10712 10711 10703 10697 10697 10696 10692 10688 10684 10679 10678 10678 10675 10675 10675 10673 10674 10674 10674 10676 10677 10676 10677 10677 10677 10678 10678 10679 10678 10677 10676 10674 10672 10670 10668 10665 10661 10659 10657 10656 10655 10655 10654 10654 10653 10651 10650 10648 10647 10646 10644 10643 10641 10638 10636 10635 10633 10631 10629 10627 10624
10711 10708 10706 10701 10699 10700 10700 10698 10691 10682 10688 10700 10699 10693 10692 10691 10692 10695 10696 10699 10703 10705 10707 10707 10700 10702 10709 10703 10694 10695 10695 10691 10684 10677 10673 10671 10671 10670 10668 10670 10670 10668 10666 10666 10668 10669 10668 10669 10669 10670 10671 10671 10671 10670 10670 10668 10666 10665 10664 10661 10658 10655 10653 10651 10649 10647 10647 10647 10646 10645 10643 10642 10641 10640 10638 10636 10634 10632 10630 10628 10626 10624 10622 10620 10618 10615
10702 10701 10699 10695 10694 10694 10693 10690 10684 10678 10680 10690 10691 10687 10686 10684 10684 10687 10689 10692 10695 10699 10704 10702 10691 10689 10703 10704 10694 10694 10694 10687 10681 10675 10669 10665 10663 10663 10660 10662 10666 10666 10663 10661 10663 10663 10662 10662 10662 10662 10663 10663 10663 10662 10661 10661 10659 10659 10657 10654 10651 10648 10646 10644 10641 10639 10639 10639 10638 10637 10635 10634 10633 10632 10630 10628 10625 10624 10621 10619 10617 10615 10613 10610 10608 10606
10693 10694 10691 10689 10689 10686 10685 10682 10678 10674 10674 10679 10679 10679 10679 10678 10678 10679 10682 10684 10685 10694 10699 10694 10682 10678 10694 10704 10695 10694 10691 10683 10679 10674 10666 10661 10658 10656 10652 10651 10656 10661 10661 10657 10658 10659 10656 10656 10656 10656 10656 10655 10655 10655 10653 10654 10653 10652 10650 10647 10644 10642 10639 10636 10633 10631 10630 10630 10630 10628 10627 10626 10624 10623 10622 10620 10616 10614 10612 10609 10607 10605 10603 10601 10598 10595
10681 10685 10686 10684 10680 10678 10677 10674 10671 10669 10668 10669 10668 10670 10671 10670 10671 10671 10674 10676 10677 10689 10693 10682 10675 10673 10688 10700 10693 10689 10687 10679 10675 10671 10664 10659 10655 10650 10645 10643 10644 10649 10652 10652 10654 10653 10649 10649 10649 10648 10649 10648 10647 10647 10647 10647 10646 10645 10642 10640 10638 10635 10632 10628 10624 10622 10619 10620 10621 10620 10618 10616 10615 10614 10613 10610 10607 10604 10602 10599 10597 10595 10593 10591 10588 10585
10674 10678 10678 10675 10672 10671 10668 10665 10665 10663 10661 10660 10660 10662 10661 10661 10664 10664 10667 10667 10668 10682 10685 10673 10668 10669 10683 10695 10687 10682 10681 10675 10671 10669 10666 10659 10651 10645 10638 10636 10637 10637 10640 10644 10648 10648 10643 10641 10642 10641 10641 10640 10639 10639 10640 10640 10639 10638 10635 10633 10631 10628 10625 10621 10616 10613 10609 10608 10610 10610 10608 10606 10606 10605 10602 10600 10597 10593 10590 10588 10586 10584 10581 10580 10577 10574
10668 10671 10668 10665 10665 10661 10657 10657 10659 10658 10654 10653 10654 10653 10651 10652 10654 10655 10659 10659 10660 10671 10673 10666 10664 10668 10681 10686 10679 10676 10675 10671 10669 10668 10667 10659 10648 10641 10634 10631 10630 10629 10631 10635 10639 10641 10638 10634 10633 10634 10633 10631 10631 10632 10632 10633 10632 10631 10629 10626 10624 10621 10618 10614 10609 10605 10601 10599 10598 10598 10597 10596 10595 10594 10591 10589 10586 10582 10579 10576 10574 10572 10570 10568 10565 10563
10659 10664 10662 10656 10655 10652 10649 10650 10650 10649 10649 10649 10650 10645 10642 10646 10644 10642 10648 10649 10652 10661 10662 10659 10660 10667 10677 10677 10671 10669 10666 10664 10665 10663 10662 10657 10644 10635 10631 10628 10624 10623 10625 10628 10628 10630 10631 10628 10624 10625 10626 10623 10623 10623 10625 10625 10624 10623 10621 10618 10616 10613 10610 10606 10602 10598 10595 10591 10588 10587 10587 10586 10584 10583 10581 10578 10575 10572 10568 10565 10563 10561 10559 10556 10554 10552
10644 10655 10660 10649 10644 10646 10644 10642 10638 10639 10644 10646 10644 10636 10638 10642 10631 10624 10634 10641 10644 10650 10655 10655 10656 10664 10669 10667 10665 10663 10659 10658 10657 10654 10653 10648 10638 10629 10625 10621 10618 10620 10621 10620 10620 10619 10620 10619 10615 10615 10616 10615 10615 10615 10616 10617 10616 10615 10613 10611 10608 10605 10602 10599 10595 10591 10587 10583 10579 10578 10576 10574 10573 10572 10570 10567 10564 10562 10558 10554 10552 10549 10547 10544 10542 10540
10625 10641 10654 10643 10637 10641 10638 10633 10628 10627 10635 10642 10637 10631 10634 10632 10617 10610 10622 10632 10631 10635 10650 10653 10649 10658 10661 10658 10659 10657 10654 10654 10650 10647 10644 10638 10632 10622 10614 10611 10613 10616 10615 10613 10613 10611 10609 10609 10607 10606 10606 10607 10607 10607 10607 10607 10607 10606 10604 10602 10599 10597 10595 10591 10587 10583 10578 10574 10570 10568 10565 10563 10562 10560 10558 10557 10554 10551 10547 10543 10541 10538 10535 10532 10529 10527
10611 10623 10639 10635 10632 10636 10631 10626 10622 10618 10624 10631 10630 10627 10625 10618 10610 10606 10610 10619 10617 10618 10640 10648 10641 10649 10654 10652 10655 10650 10646 10646 10642 10642 10639 10632 10625 10613 10603 10603 10606 10607 10606 10604 10604 10602 10601 10600 10597 10598 10598 10599 10599 10598 10598 10597 10597 10596 10594 10593 10590 10588 10587 10582 10579 10575 10569 10565 10560 10556 10554 10552 10551 10549 10547 10546 10542 10539 10535 10532 10528 10525 10522 10519 10516 10514
10602 10603 10618 10626 10625 10629 10627 10621 10618 10615 10614 10615 10616 10617 10614 10609 10608 10604 10596 10602 10606 10603 10622 10638 10635 10639 10646 10649 10651 10643 10638 10637 10634 10635 10632 10625 10616 10603 10596 10595 10596 10598 10596 10594 10593 10592 10592 10590 10589 10591 10591 10591 10590 10589 10588 10587 10587 10586 10584 10583 10582 10579 10577 10573 10570 10566 10561 10557 10551 10545 10542 10540 10538 10537 10535 10534 10530 10526 10523 10519 10516 10513 10509 10506 10502 10500
10593 10585 10595 10611 10615 10617 10617 10614 10615 10614 10605 10599 10601 10603 10604 10603 10604 10599 10587 10587 10593 10589 10602 10621 10625 10631 10640 10644 10642 10634 10633 10632 10628 10628 10623 10615 10606 10593 10587 10588 10589 10589 10587 10585 10585 10583 10582 10581 10581 10583 10583 10581 10579 10577 10578 10577 10576 10576 10574 10574 10573 10569 10566 10563 10560 10557 10552 10548 10542 10536 10531 10528 10526 10524 10523 10521 10518 10515 10511 10507 10503 10499 10495 10492 10489 10485
10582 10570 10572 10589 10599 10598 10601 10607 10608 10603 10593 10588 10590 10592 10595 10595 10591 10587 10579 10578 10581 10576 10580 10593 10607 10626 10636 10634 10632 10627 10625 10623 10620 10619 10613 10605 10597 10585 10579 10581 10582 10582 10580 10578 10577 10574 10573 10575 10575 10575 10574 10571 10568 10565 10566 10566 10565 10564 10562 10562 10562 10559 10556 10552 10549 10546 10543 10539 10534 10528 10522 10517 10514 10512 10509 10507 10504 10501 10498 10494 10490 10486 10482 10478 10475 10471
10571 10561 10558 10567 10577 10581 10590 10597 10591 10585 10581 10578 10579 10582 10584 10582 10575 10567 10564 10571 10573 10564 10562 10566 10582 10618 10631 10622 10623 10621 10615 10614 10610 10605 10601 10594 10590 10582 10573 10574 10575 10574 10573 10571 10568 10566 10566 10569 10568 10565 10563 10562 10560 10556 10553 10553 10552 10551 10550 10550 10550 10549 10546 10541 10537 10534 10531 10529 10525 10519 10513 10506 10502 10499 10496 10493 10490 10488 10485 10482 10478 10473 10469 10465 10461 10457
10558 10549 10545 10547 10557 10569 10578 10580 10574 10573 10573 10568 10566 10570 10573 10568 10561 10550 10546 10558 10560 10547 10547 10545 10556 10602 10625 10612 10610 10610 10603 10604 10599 10591 10587 10582 10580 10576 10569 10569 10567 10565 10565 10562 10560 10560 10559 10560 10557 10554 10552 10551 10551 10547 10542 10540 10538 10538 10537 10537 10537 10537 10533 10529 10525 10522 10520 10518 10514 10509 10504 10497 10491 10486 10482 10479 10477 10474 10472 10469 10466 10461 10457 10452 10448 10444
10549 10537 10531 10534 10544 10553 10558 10561 10563 10565 10565 10559 10555 10559 10561 10552 10547 10541 10534 10542 10542 10528 10532 10531 10534 10580 10613 10601 10596 10597 10592 10591 10587 10580 10576 10571 10568 10565 10562 10562 10559 10555 10556 10554 10553 10553 10550 10548 10546 10544 10543 10541 10538 10535 10531 10528 10525 10524 10525 10524 10524 10522 10519 10516 10514 10511 10508 10506 10502 10498 10494 10488 10481 10475 10470 10466 10463 10461 10459 10456 10452 10448 10444 10439 10435 10431
10538 10526 10520 10523 10528 10533 10539 10545 10550 10553 10552 10546 10542 10546 10547 10540 10536 10532 10523 10525 10522 10511 10520 10522 10518 10556 10594 10588 10579 10582 10578 10576 10572 10567 10563 10559 10555 10553 10552 10552 10549 10546 10548 10546 10544 10543 10540 10537 10536 10534 10533 10529 10524 10520 10519 10518 10516 10514 10512 10511 10509 10508 10506 10504 10502 10498 10495 10493 10490 10487 10483 10477 10471 10464 10459 10454 10450 10448 10445 10441 10438 10433 10429 10426 10422 10417
10525 10518 10511 10508 10507 10511 10521 10530 10536 10539 10534 10527 10527 10533 10535 10532 10527 10519 10513 10511 10503 10498 10510 10511 10505 10534 10569 10569 10562 10565 10563 10560 10557 10551 10547 10544 10543 10541 10540 10539 10539 10539 10539 10536 10533 10532 10530 10527 10525 10524 10520 10515 10510 10507 10506 10506 10505 10504 10501 10499 10497 10495 10493 10491 10488 10485 10482 10480 10477 10474 10470 10465 10460 10454 10448 10443 10439 10435 10431 10427 10422 10418 10415 10411 10408 10404
10508 10505 10500 10496 10494 10493 10500 10511 10518 10520 10512 10507 10514 10520 10520 10519 10513 10506 10502 10496 10488 10492 10503 10499 10493 10512 10539 10544 10544 10550 10550 10543 10539 10536 10531 10529 10527 10525 10524 10524 10527 10529 10526 10523 10522 10521 10519 10515 10513 10511 10505 10500 10498 10497 10497 10495 10493 10491 10489 10487 10485 10482 10480 10477 10474 10471 10469 10466 10464 10460 10456 10452 10447 10442 10437 10432 10427 10422 10418 10414 10409 10404 10400 10397 10393 10390
10487 10485 10484 10483 10480 10480 10483 10491 10498 10498 10492 10492 10498 10503 10503 10502 10498 10493 10487 10480 10479 10485 10488 10488 10490 10494 10506 10520 10527 10533 10534 10525 10522 10522 10516 10510 10508 10508 10510 10512 10513 10513 10510 10510 10511 10509 10506 10502 10499 10494 10489 10487 10487 10487 10487 10485 10482 10480 10477 10474 10471 10468 10466 10463 10459 10458 10456 10454 10451 10447 10443 10439 10434 10429 10424 10419 10415 10410 10406 10401 10396 10391 10386 10382 10379 10376
10468 10465 10470 10469 10465 10467 10469 10470 10476 10478 10476 10478 10480 10483 10485 10484 10481 10477 10470 10468 10474 10472 10467 10476 10483 10476 10481 10498 10507 10513 10517 10511 10505 10503 10496 10491 10493 10495 10497 10496 10495 10495 10495 10498 10499 10496 10491 10487 10482 10477 10474 10474 10474 10474 10474 10472 10470 10467 10464 10461 10458 10454 10451 10448 10445 10445 10443 10440 10437 10433 10429 10425 10420 10415 10410 10406 10402 10397 10393 10388 10383 10378 10373 10369 10365 10362
10452 10448 10456 10457 10450 10452 10454 10453 10458 10459 10459 10463 10464 10464 10467 10466 10462 10459 10455 10460 10467 10458 10449 10457 10463 10460 10468 10478 10483 10491 10498 10494 10487 10483 10479 10481 10484 10481 10475 10473 10476 10478 10479 10482 10483 10478 10473 10470 10467 10463 10462 10460 10459 10459 10459 10457 10455 10453 10449 10447 10444 10440 10437 10434 10433 10431 10429 10426 10423 10418 10414 10410 10404 10400 10396 10392 10388 10384 10379 10375 10369 10365 10361 10356 10352 10348
10439 10433 10441 10442 10432 10432 10438 10439 10442 10442 10440 10443 10446 10447 10448 10446 10445 10445 10447 10454 10453 10439 10433 10439 10440 10445 10458 10463 10463 10468 10470 10468 10468 10469 10469 10470 10468 10464 10459 10456 10459 10463 10463 10463 10462 10456 10453 10452 10451 10450 10449 10448 10445 10444 10442 10441 10438 10437 10435 10433 10430 10427 10424 10421 10419 10417 10414 10411 10407 10403 10398 10393 10389 10385 10381 10378 10374 10369 10365 10360 10355 10351 10347 10343 10339 10335
10423 10417 10423 10425 10412 10411 10424 10428 10424 10422 10418 10416 10421 10425 10425 10428 10434 10438 10436 10435 10428 10420 10423 10428 10424 10429 10443 10447 10444 10444 10443 10443 10446 10451 10455 10453 10448 10448 10448 10443 10442 10446 10447 10443 10439 10436 10436 10436 10436 10436 10436 10435 10432 10429 10426 10424 10422 10421 10420 10418 10416 10414 10411 10407 10405 10402 10398 10395 10390 10386 10381 10377 10373 10370 10367 10363 10359 10354 10350 10345 10341 10337 10333 10329 10326 10322
10407 10402 10406 10409 10394 10392 10412 10416 10406 10403 10395 10385 10393 10406 10411 10417 10422 10421 10416 10412 10407 10406 10411 10413 10409 10413 10427 10430 10424 10422 10424 10423 10425 10433 10438 10434 10429 10431 10433 10428 10425 10430 10429 10422 10418 10418 10419 10419 10419 10419 10420 10420 10417 10413 10410 10409 10408 10407 10405 10404 10402 10400 10396 10393 10389 10385 10381 10377 10372 10368 10364 10361 10358 10354 10351 10347 10343 10339 10335 10331 10326 10323 10319 10315 10312 10308
10393 10390 10392 10394 10379 10376 10396 10401 10392 10385 10369 10359 10379 10399 10404 10405 10401 10395 10396 10399 10400 10397 10391 10389 10392 10400 10407 10408 10402 10402 10405 10407 10412 10418 10415 10407 10408 10414 10415 10410 10405 10407 10407 10403 10401 10401 10400 10399 10398 10398 10401 10403 10400 10396 10395 10395 10394 10392 10390 10389 10387 10384 10380 10376 10371 10367 10363 10358 10354 10351 10348 10345 10342 10338 10335 10331 10328 10324 10320 10316 10312 10308 10304 10301 10297 10293
10381 10379 10378 10377 10364 10359 10376 10385 10375 10357 10341 10350 10381 10394 10388 10386 10384 10380 10382 10388 10390 10386 10375 10370 10375 10382 10385 10384 10382 10385 10391 10397 10401 10397 10387 10383 10389 10394 10393 10387 10381 10381 10384 10383 10382 10382 10381 10378 10377 10378 10382 10384 10383 10381 10381 10379 10377 10375 10374 10372 10370 10366 10362 10357 10353 10349 10345 10340 10337 10335 10332 10329 10325 10321 10318 10315 10312 10309 10305 10300 10297 10293 10289 10285 10281 10277
10367 10365 10361 10358 10350 10343 10353 10360 10344 10326 10330 10354 10373 10373 10368 10372 10376 10373 10369 10372 10376 10373 10367 10361 10357 10359 10363 10366 10369 10373 10378 10384 10384 10374 10367 10370 10375 10374 10370 10365 10360 10359 10362 10361 10359 10359 10359 10358 10359 10361 10364 10366 10366 10365 10364 10361 10359 10358 10357 10355 10352 10348 10344 10339 10335 10331 10326 10323 10321 10319 10316 10312 10309 10306 10303 10300 10297 10294 10291 10287 10283 10279 10274 10271 10267 10263
10345 10343 10340 10337 10332 10327 10329 10328 10317 10313 10328 10342 10345 10352 10363 10369 10370 10362 10348 10351 10362 10361 10353 10348 10344 10346 10350 10353 10358 10361 10360 10361 10356 10350 10354 10361 10362 10357 10352 10346 10342 10342 10343 10340 10337 10338 10342 10343 10344 10345 10347 10348 10348 10346 10344 10341 10340 10339 10338 10335 10332 10328 10324 10321 10317 10313 10309 10307 10306 10303 10300 10297 10294 10291 10288 10285 10282 10279 10277 10273 10269 10265 10261 10257 10254 10250
10324 10320 10317 10312 10309 10309 10307 10302 10299 10301 10308 10315 10325 10346 10362 10361 10358 10349 10329 10326 10341 10342 10335 10334 10337 10340 10344 10344 10343 10341 10338 10333 10326 10329 10344 10351 10345 10339 10333 10326 10324 10323 10323 10322 10320 10322 10326 10328 10328 10328 10329 10329 10328 10326 10323 10322 10321 10321 10319 10316 10313 10309 10306 10304 10301 10296 10293 10292 10290 10288 10285 10282 10279 10277 10274 10272 10269 10266 10263 10259 10255 10251 10247 10244 10241 10237
10306 10301 10299 10291 10285 10289 10286 10280 10280 10279 10283 10300 10320 10337 10347 10345 10341 10336 10315 10300 10308 10318 10323 10330 10334 10334 10335 10331 10324 10319 10315 10307 10303 10317 10335 10335 10326 10320 10314 10311 10311 10307 10303 10302 10304 10307 10309 10310 10310 10312 10314 10313 10312 10309 10308 10309 10308 10307 10304 10301 10298 10295 10293 10290 10285 10280 10278 10278 10276 10273 10271 10267 10265 10263 10260 10257 10255 10252 10249 10246 10241 10238 10234 10231 10228 10224
10288 10285 10284 10273 10264 10269 10269 10261 10261 10261 10265 10287 10308 10319 10328 10328 10322 10312 10290 10275 10288 10307 10315 10320 10323 10320 10314 10310 10307 10302 10295 10287 10289 10304 10317 10316 10309 10304 10300 10301 10304 10299 10290 10285 10286 10291 10294 10294 10295 10297 10298 10299 10297 10295 10295 10295 10295 10293 10291 10288 10284 10281 10279 10275 10269 10265 10263 10263 10262 10259 10256 10253 10250 10248 10245 10243 10241 10238 10235 10232 10228 10225 10222 10218 10215 10212
10275 10268 10266 10257 10250 10255 10253 10242 10242 10247 10252 10269 10286 10298 10309 10310 10299 10283 10265 10263 10284 10299 10298 10297 10299 10295 10291 10293 10293 10288 10279 10273 10277 10289 10296 10295 10292 10291 10291 10293 10295 10291 10282 10275 10274 10277 10280 10281 10282 10281 10282 10282 10281 10280 10279 10278 10277 10276 10275 10271 10268 10266 10263 10259 10254 10251 10249 10249 10247 10244 10241 10238 10235 10232 10229 10227 10226 10224 10221 10219 10215 10212 10209 10205 10201 10198
10262 10255 10248 10243 10240 10242 10238 10228 10226 10232 10240 10252 10264 10275 10286 10285 10270 10256 10253 10261 10272 10273 10271 10274 10276 10273 10272 10274 10275 10273 10269 10267 10269 10273 10278 10279 10278 10277 10279 10280 10279 10276 10270 10263 10262 10264 10264 10264 10265 10265 10267 10268 10267 10265 10263 10260 10260 10260 10257 10255 10253 10250 10246 10243 10240 10237 10235 10233 10232 10229 10226 10223 10220 10216 10214 10212 10210 10208 10206 10204 10201 10198 10194 10191 10188 10185
10246 10242 10234 10230 10229 10229 10226 10218 10214 10217 10226 10237 10248 10256 10260 10253 10241 10239 10247 10254 10253 10249 10250 10255 10257 10256 10256 10256 10257 10259 10261 10261 10260 10260 10262 10265 10265 10264 10264 10263 10262 10260 10255 10250 10249 10251 10250 10248 10245 10245 10248 10252 10252 10250 10247 10243 10242 10241 10240 10240 10238 10234 10231 10230 10227 10223 10221 10219 10217 10214 10211 10208 10205 10202 10199 10196 10194 10192 10190 10188 10185 10182 10179 10176 10174 10171
10225 10223 10219 10217 10215 10213 10209 10204 10202 10203 10209 10221 10233 10241 10239 10229 10221 10225 10233 10235 10235 10234 10234 10235 10235 10235 10235 10237 10239 10241 10243 10246 10247 10246 10246 10248 10251 10252 10251 10249 10247 10244 10242 10239 10237 10236 10236 10232 10228 10225 10226 10231 10234 10233 10230 10226 10223 10222 10223 10223 10221 10218 10217 10216 10211 10208 10206 10204 10201 10199 10197 10194 10191 10189 10186 10183 10179 10177 10175 10173 10170 10167 10165 10162 10160 10157
10204 10204 10201 10201 10199 10194 10189 10190 10194 10192 10192 10200 10212 10222 10223 10214 10206 10207 10211 10214 10216 10215 10214 10216 10217 10214 10212 10214 10218 10220 10223 10227 10228 10229 10230 10231 10235 10238 10238 10236 10234 10232 10230 10227 10223 10221 10220 10216 10212 10210 10210 10214 10215 10213 10211 10209 10207 10207 10207 10205 10203 10203 10202 10200 10196 10193 10191 10188 10186 10185 10184 10181 10179 10176 10174 10170 10166 10163 10161 10159 10156 10152 10150 10149 10146 10143
10186 10187 10182 10182 10184 10179 10172 10175 10182 10181 10179 10181 10187 10196 10202 10198 10191 10190 10192 10195 10196 10196 10196 10197 10198 10197 10195 10193 10196 10200 10204 10207 10209 10212 10214 10214 10215 10219 10220 10220 10220 10217 10215 10213 10210 10207 10204 10201 10199 10198 10198 10200 10199 10195 10193 10193 10192 10193 10191 10187 10186 10186 10185 10182 10179 10177 10175 10173 10172 10171 10170 10168 10165 10162 10160 10157 10152 10149 10147 10145 10142 10139 10136 10134 10132 10129
10166 10165 10164 10167 10169 10164 10159 10162 10165 10164 10164 10165 10166 10172 10177 10176 10174 10173 10172 10174 10177 10179 10181 10181 10180 10181 10181 10177 10177 10180 10183 10187 10190 10192 10194 10195 10196 10198 10200 10201 10202 10200 10198 10196 10195 10193 10190 10188 10187 10186 10186 10186 10184 10180 10178 10178 10179 10179 10176 10172 10170 10168 10166 10164 10161 10159 10158 10157 10156 10156 10155 10154 10151 10148 10146 10143 10139 10136 10134 10131 10129 10126 10123 10120 10118 10115
10147 10145 10144 10150 10154 10150 10148 10153 10152 10144 10143 10147 10148 10150 10151 10149 10151 10154 10154 10154 10157 10159 10162 10164 10163 10163 10165 10164 10163 10163 10164 10167 10169 10171 10174 10176 10177 10179 10182 10182 10182 10181 10179 10179 10179 10178 10177 10176 10175 10174 10173 10173 10171 10167 10164 10164 10165 10164 10161 10159 10156 10153 10149 10146 10143 10142 10141 10141 10141 10141 10140 10139 10137 10134 10132 10129 10126 10123 10121 10119 10116 10113 10110 10107 10104 10101
10134 10132 10126 10129 10134 10134 10136 10142 10138 10126 10125 10132 10132 10128 10126 10124 10125 10129 10130 10133 10139 10144 10146 10146 10144 10143 10147 10151 10150 10148 10148 10149 10150 10152 10156 10158 10158 10161 10163 10163 10162 10162 10162 10163 10162 10162 10163 10164 10164 10163 10161 10161 10158 10154 10151 10151 10150 10149 10147 10146 10143 10139 10134 10129 10126 10125 10125 10125 10126 10126 10125 10124 10122 10120 10118 10116 10113 10111 10109 10106 10104 10101 10097 10094 10091 10089
10114 10118 10118 10113 10108 10112 10122 10127 10119 10108 10113 10125 10121 10106 10101 10102 10102 10103 10106 10110 10119 10126 10128 10127 10126 10126 10129 10133 10135 10133 10132 10135 10135 10135 10136 10139 10142 10143 10144 10144 10143 10143 10145 10146 10145 10146 10148 10150 10151 10150 10149 10148 10145 10140 10138 10137 10135 10134 10134 10132 10128 10124 10118 10113 10110 10109 10109 10110 10111 10111 10110 10109 10107 10105 10104 10102 10100 10098 10096 10094 10092 10088 10085 10082 10079 10077
10089 10096 10105 10098 10088 10096 10109 10107 10096 10090 10098 10112 10108 10089 10078 10080 10081 10083 10090 10096 10101 10105 10105 10106 10108 10109 10110 10113 10116 10116 10116 10118 10121 10119 10119 10122 10126 10127 10127 10127 10127 10127 10128 10129 10128 10128 10131 10133 10134 10133 10133 10132 10129 10125 10123 10123 10121 10119 10119 10116 10113 10109 10103 10098 10096 10094 10094 10095 10095 10095 10095 10094 10093 10091 10090 10088 10086 10084 10083 10082 10079 10076 10073 10070 10067 10065
10071 10076 10082 10076 10072 10084 10092 10083 10073 10070 10075 10087 10091 10080 10069 10064 10061 10063 10073 10085 10088 10086 10084 10085 10088 10092 10094 10093 10094 10095 10097 10101 10104 10104 10104 10107 10110 10111 10110 10110 10111 10112 10114 10115 10113 10113 10114 10115 10114 10114 10114 10114 10111 10108 10109 10109 10107 10104 10103 10101 10097 10093 10088 10084 10082 10080 10079 10079 10079 10079 10079 10079 10079 10078 10076 10074 10073 10071 10070 10069 10067 10063 10061 10058 10055 10053